Regional Weather Roundup
Issued by NWS

Home | Current Version | Previous Version | Graphics & Text | Print | Product List | Glossary Off
Versions: 1 2 3 4 5 6 7 8 9 10 11 12 13 14 15 16 17 18 19 20 21 22 23 24 25 26 27 28 29 30 31 32 33 34 35 36 37 38 39 40 41 42 43 44 45 46 47 48 49 50

000
ASUS43 KDMX 270206
RWRIA

WEATHER ROUNDUP FOR IOWA
NATIONAL WEATHER SERVICE DES MOINES IA
900 PM CDT WED JUL 26 2017

NOTE: "FAIR" INDICATES FEW OR NO CLOUDS BELOW 12,000 FEET WITH NO
SIGNIFICANT WEATHER AND/OR OBSTRUCTIONS TO VISIBILITY.

* - THESE STATIONS ARE NOT NWS STATIONS...THUS NOT UNDER NWS
QUALITY CONTROL.  THEY ALSO DO NOT REPORT WEATHER SUCH
AS PRECIPITATION OR FOG.

IAZ001>003-012>014-020>022-031>034-043>046-270300-
   NORTHWEST IOWA

CITY           SKY/WX    TMP DP  RH WIND       PRES   REMARKS
CARROLL *      CLEAR     73  73 100 CALM      30.00S
CHEROKEE *     PTCLDY    76  73  91 N3        30.02R
DENISON *      CLEAR     75  72  88 NE6       30.01S
ORANGE CITY *  CLEAR     75  64  69 N8        30.04S
SHELDON *      CLEAR     70  64  83 N6        30.04R
SIOUX CITY     CLEAR     79  71  76 N8        30.00R HX  82
SPENCER        CLEAR     75  65  70 N7        30.03R
STORM LAKE *   PTCLDY    73  70  88 N3        30.02S
$$

IAZ055>058-069>071-079>083-090>094-270300-
   SOUTHWEST IOWA

CITY           SKY/WX    TMP DP  RH WIND       PRES   REMARKS
ATLANTIC *     PTCLDY    73  73 100 N3        29.98S
AUDUBON *      CLEAR     73  70  88 CALM      30.01S
CLARINDA *     CLOUDY    75  75 100 N5        29.98S FOG
COUNCIL BLFS * CLOUDY    73  73 100 NE3       29.99S FOG
CRESTON *      CLOUDY    75  73  94 N3        29.99F
HARLAN  *      CLEAR     73  73 100 CALM      30.03R
LAMONI         CLOUDY    77  74  90 CALM      29.97S
RED OAK *      CLOUDY    75  75 100 N5        29.97S
SHENANDOAH *   CLOUDY    75  73  94 CALM      29.97S
$$

IAZ047>049-059>061-072>074-084-270300-
   CENTRAL IOWA

CITY           SKY/WX    TMP DP  RH WIND       PRES   REMARKS
AMES           CLOUDY    73  72  96 N6        29.98S
ANKENY *       CLOUDY    73  72  94 CALM      29.98S
BOONE *        PTCLDY    72  70  94 NE5       29.98F
CHARITON *     CLOUDY    75  73  94 CALM      29.97S
DES MOINES     CLOUDY    76  74  93 N3        29.96F
GRINNELL*      CLOUDY    74  71  88 CALM      30.00R
KNOXVILLE *    CLOUDY    77  72  83 W5        29.96S
MARSHALLTOWN   CLOUDY    74  71  91 W6        29.97S
NEWTON *       CLOUDY    73  72  94 NW5       29.98S
PELLA *        MOCLDY    77  72  84 CALM      29.98S
PERRY *        MOCLDY    75  74  96 NE3       29.99S
$$

IAZ004>006-015-016-023>025-035-036-270300-
   NORTH CENTRAL IOWA

CITY           SKY/WX    TMP DP  RH WIND       PRES   REMARKS
ALGONA *       CLOUDY    77  72  83 N5        30.02R
ESTHERVILLE    CLEAR     71  65  81 N8        30.03R
FORT DODGE *   CLEAR     72  68  88 CALM      30.01S
MASON CITY     CLOUDY    73  69  87 SW3       30.02R
FOREST CITY *  MOCLDY    73  70  88 CALM      30.01R
WEBSTER CITY * PTCLDY    70  70 100 CALM      29.98S
IOWA FALLS *   CLOUDY    73  67  80 NE5       30.01S
$$

IAZ007>011-017>019-026>030-037>042-050>054-066-270300-
   NORTHEAST IOWA

CITY           SKY/WX    TMP DP  RH WIND       PRES   REMARKS
CEDAR RAPIDS   CLOUDY    75  75 100 N5        29.96R
CHARLES CITY * MOCLDY    72  72 100 CALM      30.01R
DECORAH *      CLOUDY    73  72  94 CALM      29.98S
DUBUQUE        CLOUDY    70  68  93 W3        29.97S
MONTICELLO *   CLOUDY    72  70  94 E5        29.97R
WATERLOO       CLOUDY    75  70  84 N6        29.97R
$$

IAZ064-065-067-068-078-270300-
   EAST CENTRAL IOWA

CITY           SKY/WX    TMP DP  RH WIND       PRES   REMARKS
DAVENPORT      CLOUDY    72  71  97 CALM      29.98S
IOWA CITY      CLOUDY    76  73  91 CALM      29.97R
MT. PLEASANT * CLOUDY    74  74 100 CALM      29.97R
MUSCATINE *    CLOUDY    73  72  94 CALM      29.96S
QUAD CITIES    CLOUDY    73  70  90 SW3       29.95F
$$

IAZ062-063-075>077-085>089-095>099-270300-
   SOUTHEAST IOWA

CITY           SKY/WX    TMP DP  RH WIND       PRES   REMARKS
BURLINGTON     CLOUDY    74  74 100 SW3       29.96R
FAIRFIELD *    CLOUDY    77  72  83 N8        29.96F
FORT MADISON * CLOUDY    73  73 100 CALM      29.97R
KEOKUK *       CLOUDY    77  75  94 S7        29.96R
OSKALOOSA *    CLOUDY    76  71  85 CALM      29.97F
CENTERVILLE *    N/A     75  73  94 CALM      29.98S
OTTUMWA        CLOUDY    78  73  84 NW3       29.96S HX  81
WASHINGTON *   CLOUDY    75  73  94 CALM      29.98S
$$

ABBREVIATIONS USED IN REMARKS
   TC - TEMPERATURES IN CELSIUS
  WCI - WIND CHILL INDEX
   HX - HEAT INDEX
  VSB - VISIBILITY
$$





USA.gov is the U.S. government's official web portal to all federal, state and local government web resources and services.